Dewpoint
42 42 42 41 41 41 41 40 40 40 40 39 39 38 38 39 40 41 43 45 47 49 51 54 54 54 54 53 52 51 50 50 49 49 48 48 47 46 44 42 41 41 40 40 41 42 45 45 45 44 45 46 46 44 44 44 44 43 42 42 43 45 45 45 45 45 46 47 48 48 48 48 48 47 46 46 46 46 47 47 48 48 48 48 47 48 47 47 48 47 47 46 46 47 48 47 47 47 47 47 46 45 43
40 40 40 40 40 40 41 41 41 41 41 41 40 40 40 40 41 42 44 45 47 49 52 53 54 54 53 52 50 48 47 46 46 46 45 45 44 42 42 42 41 40 40 41 42 44 43 42 40 40 41 42 42 41 41 41 41 41 40 40 40 42 43 43 42 42 43 44 44 45 45 45 45 45 45 45 45 45 45 45 46 46 46 46 46 47 48 49 49 51 49 49 49 49 49 49 48 47 46 46 46 45 44
39 39 39 39 39 40 41 42 43 42 43 42 42 43 43 43 43 44 45 46 48 50 52 53 53 53 51 50 48 46 45 45 45 45 44 43 41 41 40 40 40 40 40 40 40 39 40 38 37 36 37 38 38 39 40 40 40 40 40 40 40 40 40 41 41 42 42 42 42 43 43 42 42 42 42 43 43 43 44 44 45 46 46 46 47 48 49 49 50 54 52 53 53 50 50 49 49 48 46 46 46 45 45
37 37 37 38 38 39 40 41 43 45 44 44 43 44 45 45 45 45 46 47 48 50 52 52 51 50 49 48 47 47 46 45 45 44 43 42 42 41 40 40 39 39 38 37 36 37 38 37 36 36 37 37 38 39 40 40 40 40 40 40 40 40 40 40 40 40 41 41 41 43 42 41 40 40 40 40 41 41 42 42 43 44 45 46 47 48 49 49 49 50 51 53 53 51 50 49 49 48 47 46 46 46 46
37 37 37 38 38 38 39 40 42 43 43 43 43 43 44 45 45 45 46 47 48 49 49 49 47 47 47 46 46 46 46 45 45 43 42 41 41 40 40 40 39 38 38 37 37 38 40 40 39 39 38 38 39 40 40 40 40 40 40 40 41 40 40 41 41 40 41 41 41 42 40 40 39 39 39 39 39 40 40 41 41 42 42 43 45 46 46 47 46 47 48 49 49 49 48 47 47 46 46 45 45 45 45
36 37 38 38 38 38 38 39 40 40 40 41 41 42 43 43 43 44 44 45 45 46 45 45 45 44 44 44 44 45 45 45 44 43 42 41 40 39 39 39 38 37 37 37 36 36 39 40 40 40 39 39 39 39 40 40 40 40 40 41 41 40 41 41 40 40 41 41 41 40 39 39 39 39 38 38 39 39 40 40 40 40 40 40 40 41 42 43 43 44 44 44 45 45 45 45 45 45 45 45 45 44 44
36 36 37 37 37 38 37 37 37 37 37 38 40 40 41 41 41 41 41 42 43 43 43 43 42 42 42 41 41 41 42 42 42 42 41 40 40 40 39 38 38 37 38 38 37 36 36 37 38 39 38 39 39 40 40 39 39 40 40 40 41 41 42 42 40 40 41 42 42 41 40 40 39 38 38 38 39 39 39 39 40 40 40 40 39 39 39 40 40 40 40 40 41 40 42 43 43 41 42 42 42 43 43
34 35 36 36 37 37 37 37 37 36 35 36 37 37 38 38 38 39 40 40 40 41 41 41 40 39 39 38 38 38 39 39 40 39 38 39 39 39 38 38 38 38 38 39 39 40 39 39 39 40 38 38 39 40 40 40 40 41 40 40 40 41 43 44 42 41 41 41 41 41 40 39 38 38 38 38 39 38 38 38 39 40 40 39 39 38 38 38 38 38 39 39 40 40 40 41 41 40 39 39 39 40 40
33 34 35 36 37 38 38 38 38 37 36 36 36 37 37 37 37 38 38 39 39 40 39 39 38 37 37 37 37 37 37 38 38 37 38 38 39 38 38 38 39 39 39 39 39 40 39 38 38 37 37 37 39 40 40 40 41 41 41 40 40 40 43 44 43 41 41 41 41 40 40 39 38 37 37 37 37 37 37 37 37 38 38 38 37 37 37 38 38 39 39 40 40 40 40 40 40 40 40 39 39 39 39
33 34 34 35 36 38 38 38 38 37 36 36 37 37 37 37 36 37 38 38 38 38 37 37 37 37 37 37 37 37 37 37 38 38 38 39 39 38 39 39 39 38 38 38 38 37 37 37 37 37 37 37 38 39 39 39 40 40 40 39 40 40 42 43 42 41 41 41 40 40 40 39 38 37 37 37 37 36 37 37 37 37 37 37 36 36 37 38 38 39 39 39 40 40 40 40 40 41 41 40 40 39 39
33 34 34 34 35 36 37 37 37 37 37 37 38 38 37 37 37 37 38 37 37 36 36 36 37 37 37 37 38 38 38 38 38 39 39 39 39 39 39 39 39 38 38 37 37 37 37 37 37 38 38 38 38 38 38 39 40 40 40 40 40 40 41 41 41 40 40 40 40 41 41 40 39 38 38 37 37 37 36 37 37 37 37 37 37 37 37 37 37 37 38 39 40 40 41 40 40 41 41 41 40 39 39
33 33 33 34 34 34 36 36 36 37 37 37 37 37 37 37 37 37 37 37 37 37 37 37 37 38 38 39 38 38 38 39 39 40 40 39 38 38 39 39 39 39 38 38 38 37 37 37 38 39 39 39 39 38 39 40 41 41 40 40 40 40 40 39 39 38 39 40 41 42 41 40 39 37 37 37 37 37 37 37 37 37 39 39 38 37 37 36 36 37 38 39 40 41 41 41 41 41 42 41 40 40 39
33 33 34 34 34 33 35 36 36 37 36 36 36 36 36 36 35 35 36 37 38 38 38 38 38 38 39 39 39 37 38 39 40 39 39 39 38 38 39 39 39 39 39 39 38 38 38 38 38 39 38 39 40 39 40 40 40 40 40 39 39 39 37 37 37 37 38 40 41 42 41 40 39 37 37 37 37 37 37 37 37 38 40 39 38 37 37 37 37 38 38 40 41 42 42 42 42 42 42 42 41 40 40
34 34 34 34 34 34 35 36 36 36 36 36 36 34 34 33 33 34 35 36 37 38 39 39 39 39 39 40 40 39 40 40 40 39 40 40 39 39 39 39 39 39 40 40 39 39 39 39 39 38 39 40 40 40 40 40 39 39 38 37 36 36 35 35 36 36 37 39 41 42 41 41 40 38 37 37 38 37 38 38 38 39 40 40 39 38 38 38 39 39 40 40 42 43 43 43 43 42 42 42 42 41 40
34 35 35 35 35 35 35 35 36 36 36 35 34 33 32 33 34 34 35 36 36 38 39 39 39 38 38 39 39 39 40 40 41 40 40 40 40 40 40 40 40 40 40 40 40 40 40 40 40 40 41 42 41 40 40 39 37 36 36 35 34 33 34 34 35 36 37 38 40 42 41 40 40 39 38 37 37 37 38 38 39 40 40 40 39 39 39 40 40 40 40 41 41 42 42 42 42 41 41 42 42 42 41
34 35 35 35 35 35 35 36 36 36 36 35 33 33 34 34 34 35 35 35 36 36 38 38 38 37 37 38 38 39 40 41 42 41 41 42 42 41 42 41 41 41 41 40 40 41 41 41 40 40 41 41 40 39 38 36 35 33 33 32 32 32 33 34 34 34 37 38 38 40 40 40 40 40 38 37 37 37 37 38 39 40 40 40 39 40 40 40 41 41 41 41 41 41 41 42 42 42 41 41 42 42 41
34 35 36 36 36 36 36 36 36 36 36 35 34 35 35 35 35 35 35 35 36 36 37 38 37 36 36 37 38 39 40 41 42 42 42 42 42 42 42 42 41 42 42 41 40 40 40 40 39 39 38 38 37 36 36 34 32 31 31 32 32 31 32 33 33 34 34 36 37 38 38 40 40 40 39 38 37 37 38 39 40 41 40 40 40 40 41 41 41 41 41 42 42 42 41 41 42 42 42 41 42 42 41
34 35 36 36 36 37 36 36 36 37 37 36 36 35 36 36 35 35 35 36 36 37 38 38 37 36 37 37 38 39 40 40 41 41 41 41 41 42 42 41 40 41 42 41 40 40 39 38 37 36 36 35 34 33 33 32 31 31 31 31 31 31 32 32 33 33 34 34 36 37 38 39 40 39 38 37 38 38 38 39 40 41 40 40 40 40 40 40 40 40 40 41 41 41 41 41 41 42 41 41 41 42 41
35 36 36 37 37 37 36 36 36 36 37 37 37 36 36 36 35 35 36 36 36 37 39 39 38 37 37 38 38 38 39 40 40 40 40 40 40 40 40 40 39 40 40 40 40 39 38 36 35 34 33 32 32 31 31 31 31 31 30 30 31 31 32 32 32 33 33 34 35 37 37 38 38 37 37 37 38 38 38 38 39 40 40 40 40 40 40 40 40 40 40 40 40 40 40 40 41 41 41 41 41 41 40
36 36 36 36 36 36 36 36 36 36 37 38 38 38 37 36 36 36 36 36 36 37 38 38 38 36 36 36 36 37 37 37 38 38 39 39 39 39 39 39 39 39 40 40 40 39 37 36 34 33 32 32 31 31 30 30 30 30 30 31 31 31 32 32 32 33 33 34 35 36 37 37 37 37 37 37 37 37 38 38 39 39 39 39 39 39 40 40 40 40 40 40 40 40 39 40 40 40 41 41 41 40 40
35 36 36 36 36 36 36 36 36 36 37 38 39 39 38 38 37 36 36 36 36 37 37 37 36 33 33 34 34 34 34 35 35 35 36 36 37 37 37 38 39 39 39 39 39 39 37 36 35 34 33 32 32 31 31 31 30 30 31 32 32 31 31 32 32 32 33 33 34 35 36 37 37 36 37 37 37 37 38 38 39 38 39 39 39 39 40 40 41 41 40 40 39 39 39 39 40 40 40 40 40 40 40
34 35 35 35 36 36 36 36 37 37 38 39 39 39 39 39 38 36 36 36 36 37 36 36 34 32 32 32 32 31 32 33 33 34 35 35 36 36 36 37 37 38 38 37 36 36 36 36 36 35 34 33 32 32 32 32 31 31 31 32 32 31 32 32 32 32 33 33 34 34 35 36 36 36 36 37 37 38 38 38 38 38 39 39 40 40 41 41 42 41 40 40 39 39 39 39 39 40 40 40 40 40 40
34 35 35 36 36 37 37 37 37 38 38 39 39 40 39 39 38 36 36 36 36 36 36 35 34 32 32 32 31 31 31 32 33 34 35 35 36 36 36 37 37 37 38 37 36 37 38 37 36 36 34 33 33 33 33 33 33 33 33 32 32 32 32 32 32 33 33 34 34 35 35 36 36 36 36 37 37 38 38 38 38 38 39 40 40 41 41 41 41 41 40 39 39 39 39 39 39 40 40 40 40 41 40
34 35 35 36 37 38 37 37 38 38 39 39 40 40 40 39 38 38 37 37 37 38 37 36 34 33 33 32 32 31 31 32 33 34 35 35 36 36 37 37 37 37 37 38 38 38 38 37 37 36 35 35 34 34 34 34 35 34 34 33 33 33 33 33 33 34 34 34 35 36 36 36 37 37 37 38 38 39 39 39 39 39 39 40 41 41 41 41 41 40 40 39 39 39 40 40 40 40 40 41 41 41 41
35 35 35 36 37 37 37 37 38 39 40 40 40 40 40 40 39 39 39 39 38 38 37 36 35 34 33 33 33 32 32 32 33 34 35 35 36 36 36 36 37 37 37 38 39 40 39 38 37 36 36 36 36 36 35 35 35 35 35 34 34 34 33 34 34 34 35 35 36 36 37 37 38 38 39 39 39 39 39 39 39 39 40 40 40 40 40 40 40 40 40 40 40 40 40 40 41 41 42 41 41 40 41
35 35 35 36 36 36 36 36 37 38 39 40 40 40 41 40 40 40 39 39 39 38 37 36 35 34 34 33 33 32 32 32 32 33 34 35 36 36 36 36 36 37 37 38 39 40 39 39 38 37 37 36 36 36 36 35 35 35 34 34 34 34 34 34 34 35 35 36 36 37 37 38 38 39 39 39 38 38 39 39 40 40 40 40 40 40 40 40 40 41 41 41 40 41 41 41 42 43 43 42 41 40 40
35 35 35 36 36 36 36 37 37 39 40 41 42 43 42 41 40 40 40 39 39 38 38 37 36 35 34 34 33 32 32 32 32 33 34 35 36 36 37 37 38 39 38 39 40 39 39 39 39 38 37 36 36 36 36 35 34 34 34 34 34 35 35 35 35 35 35 36 36 37 37 38 38 39 39 39 38 38 39 39 40 40 40 40 40 40 41 41 41 41 41 41 40 40 40 40 41 44 44 42 40 40 40
35 35 36 36 36 36 37 37 37 38 38 40 42 44 42 41 40 39 39 39 39 39 39 38 37 36 35 34 33 32 31 32 32 33 34 35 36 37 39 40 41 41 41 41 41 40 40 39 38 38 37 37 36 36 36 36 35 35 35 35 35 35 36 36 36 35 36 36 37 37 38 38 38 38 38 38 38 38 38 38 39 39 40 40 40 41 41 41 42 42 42 41 40 39 39 39 39 40 40 40 39 39 38
35 35 36 36 36 36 37 37 37 37 38 38 39 39 39 39 38 39 39 39 39 40 39 39 37 36 36 35 34 33 32 32 32 33 35 35 36 38 41 42 43 43 43 42 41 40 40 39 39 38 38 37 37 37 37 36 36 36 36 36 36 36 36 36 36 36 36 37 37 38 38 38 37 36 37 38 38 39 39 39 39 39 40 40 41 41 41 42 43 43 42 40 39 38 39 38 38 38 38 38 37 38 37
35 36 36 36 36 36 36 36 36 37 37 37 37 37 38 37 37 38 40 40 40 40 40 39 38 36 36 35 34 33 33 33 33 34 35 35 36 39 40 41 42 43 43 42 41 40 40 40 39 38 38 38 37 37 36 36 36 36 36 36 36 35 35 36 36 36 36 37 38 38 38 38 38 37 36 38 39 40 40 40 40 40 40 40 41 42 42 44 45 44 41 40 38 38 38 38 38 38 37 37 37 37 36
35 35 35 35 35 36 36 36 36 37 37 37 37 37 37 38 39 39 40 40 40 40 40 38 37 36 36 36 35 34 34 33 33 34 35 36 36 37 38 39 40 41 41 41 41 41 40 40 39 38 38 37 37 37 36 35 35 35 35 35 35 35 36 36 36 36 36 36 37 37 38 38 39 39 38 39 40 40 40 41 41 40 41 41 41 42 42 43 44 43 40 39 38 37 37 37 37 37 36 36 36 36 36
35 35 35 35 35 35 36 36 37 37 37 37 37 37 38 39 40 40 40 40 40 40 39 38 37 36 36 35 35 35 34 34 34 34 35 36 36 36 36 37 38 38 39 39 39 39 39 38 38 37 37 36 36 36 35 34 34 35 35 36 36 36 36 36 36 35 36 36 36 37 37 38 38 38 39 39 39 39 40 40 40 40 40 40 40 40 40 41 42 42 41 39 38 37 37 36 36 37 36 36 36 36 36
34 35 35 35 35 35 35 36 36 36 36 36 37 38 38 39 39 40 40 39 39 39 38 37 36 36 36 35 35 35 34 35 35 35 36 36 36 36 36 36 37 37 37 37 36 36 36 36 36 36 36 35 34 33 34 34 35 36 36 36 36 36 36 36 36 36 37 37 37 37 38 38 38 38 39 39 40 40 40 40 40 40 40 40 39 39 39 40 40 41 41 40 40 39 38 37 36 37 37 37 36 36 36
35 34 35 35 35 35 35 35 35 35 36 36 36 37 38 39 40 40 39 38 38 38 37 37 36 36 35 35 35 34 35 35 35 35 35 35 35 36 36 37 37 37 36 36 36 36 35 35 35 35 35 34 34 33 34 35 36 36 37 36 36 36 36 36 36 36 37 37 38 38 38 39 39 40 40 40 40 40 40 40 39 39 39 38 38 38 38 39 40 42 43 43 42 42 41 40 39 39 39 38 38 36 36
34 34 35 35 35 35 35 35 35 35 35 35 36 36 38 39 39 39 38 38 38 38 37 37 36 36 36 35 35 35 35 36 35 35 34 35 36 36 36 36 37 36 36 35 35 34 34 34 33 34 34 34 34 34 34 34 35 34 35 36 36 35 36 36 37 37 37 38 38 39 39 39 40 40 40 40 40 39 38 38 37 37 36 36 35 36 36 37 39 41 42 43 44 44 42 41 40 40 40 39 39 38 36
34 34 35 35 35 35 34 35 35 35 35 35 35 36 36 37 38 38 37 37 38 37 37 37 36 36 36 36 36 35 35 35 35 34 34 35 35 36 36 36 36 35 34 34 33 32 33 32 31 33 32 33 33 33 33 33 33 33 34 34 34 34 36 36 36 36 37 37 37 38 38 38 39 38 37 36 36 35 35 35 34 34 34 34 34 34 36 37 38 40 42 42 42 44 43 42 41 40 40 39 38 37 36
34 34 34 35 35 34 34 35 35 35 35 35 35 35 36 36 36 36 36 36 37 37 37 37 37 36 36 36 36 35 35 35 35 35 35 35 35 35 35 35 34 33 33 32 32 32 31 31 31 32 31 31 31 31 31 31 32 33 33 33 33 34 35 34 34 35 36 36 36 36 36 36 36 36 35 34 33 33 33 33 33 33 34 34 35 36 36 38 39 40 40 40 41 42 43 42 41 40 39 38 37 37 36
33 33 34 34 34 34 35 35 35 35 35 35 35 36 36 36 36 36 36 36 37 37 37 37 36 36 36 35 35 35 35 35 35 35 35 34 34 34 33 33 33 33 32 32 31 31 31 31 31 31 31 31 30 31 31 31 31 31 32 32 33 34 34 34 34 34 35 35 35 34 35 35 35 34 34 34 34 33 33 33 34 34 35 36 36 37 38 39 39 40 40 40 40 41 42 42 40 39 37 36 36 35 35
33 33 33 34 34 34 35 35 35 36 36 36 36 36 36 37 37 37 37 37 36 36 36 36 36 36 35 35 35 35 34 34 35 35 34 33 33 32 32 32 33 33 32 32 31 31 31 31 31 30 30 30 30 30 30 31 31 31 31 31 32 34 34 34 34 35 35 35 35 35 34 34 34 34 34 34 34 34 34 35 35 36 36 36 37 38 39 39 39 39 39 39 40 40 40 40 39 38 36 35 35 34 34
33 33 33 34 35 35 36 36 35 36 36 37 37 37 37 37 37 37 36 36 36 36 36 36 36 35 35 35 35 34 34 34 33 33 33 32 32 32 32 33 32 32 32 31 31 31 31 31 30 30 30 30 30 30 31 31 31 31 31 32 34 36 35 35 35 35 35 35 35 36 35 35 35 35 34 34 34 34 35 36 36 36 36 37 37 37 37 37 37 37 37 37 37 37 36 36 36 36 36 35 35 35 35
33 33 34 35 35 35 35 34 35 35 36 37 37 36 37 37 36 36 36 36 36 36 36 36 35 35 35 35 34 34 33 33 33 33 33 32 32 32 32 32 32 31 31 31 31 31 31 30 30 30 30 30 30 31 31 31 32 32 33 34 36 37 36 36 36 35 35 35 36 36 36 35 35 34 34 34 34 34 35 35 36 36 36 36 36 36 36 35 35 35 35 35 35 35 34 34 34 34 34 35 35 35 35
33 34 34 34 35 34 35 35 36 36 36 36 36 36 36 36 36 36 36 36 36 36 36 35 35 34 35 35 34 33 33 32 32 32 32 32 32 31 31 31 31 31 31 31 31 30 30 30 30 31 31 31 31 31 32 33 34 35 35 35 36 36 37 36 36 36 36 36 36 36 36 35 34 34 34 34 34 34 34 35 35 35 35 34 34 33 33 33 33 33 34 34 34 34 33 33 33 33 33 34 34 34 34
33 33 34 34 35 35 36 36 36 36 36 36 36 36 36 36 36 36 36 36 35 35 35 35 35 34 34 34 34 33 33 32 32 32 32 32 31 31 31 31 31 31 31 31 31 30 30 30 31 31 31 32 32 32 33 34 34 36 36 36 36 36 38 38 37 37 37 36 36 36 36 35 34 34 34 34 34 35 35 35 35 34 34 33 33 32 32 32 32 32 33 33 34 34 34 33 33 33 33 33 33 33 33
33 33 34 35 36 36 36 36 36 36 36 36 36 36 36 36 36 36 36 35 35 35 35 35 35 34 34 34 34 33 33 32 32 32 31 31 31 31 31 31 31 31 31 31 31 31 31 31 32 32 32 33 33 33 33 34 34 35 36 36 36 36 37 38 38 37 37 36 36 36 36 35 34 34 35 35 35 35 35 35 34 33 33 33 32 32 32 32 32 32 32 33 33 33 33 33 33 33 32 32 32 32 32
34 35 36 36 37 37 37 36 36 36 36 36 36 36 36 36 36 36 35 35 34 34 34 34 34 34 34 34 33 33 33 32 32 32 32 32 31 32 31 31 31 31 31 31 31 31 31 32 33 33 33 33 33 33 34 34 35 35 35 36 35 35 36 37 37 36 36 35 35 35 35 35 34 34 35 35 35 35 34 34 33 33 32 32 32 31 31 31 31 31 31 32 31 31 31 31 31 31 31 31 32 32 31
36 37 37 37 37 37 36 36 36 36 36 36 35 35 35 36 36 35 35 34 34 33 33 33 34 34 34 34 33 33 33 32 32 32 32 31 31 32 31 31 31 31 32 32 32 32 32 33 33 34 33 33 33 34 34 35 35 35 35 35 35 34 35 35 35 34 34 34 34 34 34 35 35 34 34 34 34 34 33 32 32 31 31 31 31 30 30 30 30 30 30 31 31 31 31 31 31 30 30 30 31 31 30
38 38 38 37 37 36 36 36 35 35 35 35 35 35 35 35 35 35 34 34 33 33 33 33 34 34 34 34 33 33 33 32 32 32 32 31 31 32 32 32 32 32 32 32 32 32 33 33 33 34 34 34 34 34 34 34 35 35 34 34 34 33 33 32 32 32 33 33 33 33 33 33 33 33 33 33 33 33 32 31 31 31 31 30 30 30 29 29 29 30 30 30 30 29 28 28 28 28 28 28 28 29 29
38 38 37 37 36 36 35 35 35 35 35 35 35 35 35 35 35 34 34 33 33 33 33 33 34 35 34 33 33 33 33 33 32 32 32 32 32 32 32 32 33 33 33 33 33 33 33 33 33 33 33 33 33 33 33 33 34 34 33 32 32 31 31 31 32 32 33 33 32 32 32 32 32 32 32 32 32 32 31 31 31 30 30 29 29 29 29 29 29 29 28 28 27 26 25 24 25 27 26 26 26 26 27
38 37 37 36 35 35 34 34 34 34 34 34 34 34 34 34 34 33 33 33 32 32 33 33 34 34 33 32 32 33 33 33 33 32 32 32 32 31 31 32 33 34 34 34 34 33 33 33 33 33 33 33 32 32 31 32 32 32 31 31 32 32 33 33 34 34 34 34 34 33 33 33 33 32 32 31 31 31 31 30 29 29 28 27 28 30 31 31 31 29 27 25 23 22 22 22 24 25 25 24 25 25 25
37 37 36 35 35 34 33 33 33 33 35 35 35 34 34 33 33 33 32 32 32 32 32 32 32 32 31 32 32 33 33 33 33 33 32 32 31 31 31 32 33 34 34 34 34 33 33 33 33 33 32 32 31 31 30 30 30 30 31 32 33 34 35 35 35 35 35 34 34 33 33 33 32 32 31 31 31 30 30 29 28 27 27 27 28 29 31 33 32 30 27 25 22 21 22 24 25 26 26 26 26 27 26
36 36 35 34 34 33 33 33 33 33 34 35 35 34 33 32 32 32 32 31 31 31 31 31 31 31 31 32 32 33 33 33 33 33 33 32 32 31 31 32 32 33 34 34 33 33 33 32 32 32 32 31 31 29 27 27 27 28 31 32 33 34 34 34 34 34 34 34 34 33 32 32 31 31 30 29 29 28 27 27 27 27 27 28 30 30 32 32 31 29 28 27 25 24 24 24 25 26 26 27 27 27 27
35 34 33 33 32 32 33 33 33 32 32 32 32 32 31 31 30 30 30 30 29 28 29 29 30 30 31 31 32 33 32 32 32 33 33 32 32 32 32 32 32 33 33 33 33 33 33 32 32 31 31 29 28 27 26 26 27 28 29 31 31 32 32 33 33 32 32 33 33 31 31 30 29 27 28 27 27 26 26 26 26 25 27 28 30 31 31 29 28 27 27 27 28 26 25 25 24 24 25 26 26 26 26
33 32 32 31 32 32 32 32 31 30 30 30 30 30 29 28 27 27 27 26 26 26 27 27 28 28 30 31 32 32 32 32 33 33 33 33 33 33 33 33 33 33 33 33 33 33 33 32 31 30 28 27 26 26 26 27 27 28 29 29 30 31 31 31 31 30 29 29 28 27 27 27 27 26 26 26 26 25 25 24 23 22 25 27 30 30 29 28 27 26 27 28 28 28 26 25 25 24 24 24 23 23 23
31 31 31 31 31 31 30 29 28 27 27 27 27 26 25 24 23 24 23 23 23 24 25 26 26 27 28 30 30 30 34 36 36 35 34 34 33 33 33 33 33 33 34 34 34 33 33 32 31 29 27 26 25 25 27 27 28 29 29 29 29 29 29 29 27 27 26 26 26 25 25 25 25 24 24 24 24 24 24 23 22 22 22 23 26 29 27 27 27 27 27 27 27 27 25 22 22 22 22 21 21 20 20
31 30 30 29 29 28 26 25 24 24 23 22 22 22 22 22 22 21 21 21 22 23 24 24 25 26 27 27 28 28 32 34 35 35 34 33 32 32 32 33 33 33 34 34 34 33 33 31 30 28 27 27 27 27 28 28 28 29 28 28 27 27 27 26 26 25 25 25 25 24 24 23 22 21 22 22 23 23 22 22 22 21 21 23 26 28 27 27 26 25 25 25 25 26 25 23 21 20 19 18 18 18 18
30 29 28 27 26 25 23 22 21 19 20 20 21 21 22 22 22 21 21 22 23 24 24 25 25 26 26 27 27 28 31 32 33 33 32 31 31 32 32 33 33 34 34 34 33 33 32 31 30 28 28 28 29 29 29 28 28 28 27 27 26 26 25 25 25 25 25 24 24 22 22 21 20 20 21 22 23 23 23 22 21 20 21 23 25 28 27 26 25 23 23 23 24 25 24 22 21 20 19 18 18 18 18
28 27 26 24 22 23 21 20 19 18 19 20 20 21 22 22 23 22 22 23 25 25 25 26 26 26 26 27 27 27 27 28 28 29 29 30 31 31 32 32 33 34 34 33 33 31 31 31 30 29 29 30 30 30 29 28 28 27 27 26 26 25 25 25 24 24 24 23 22 22 21 20 20 20 22 22 22 23 22 22 22 22 21 22 25 27 26 25 23 22 22 23 24 25 24 23 22 21 20 19 18 18 19
25 23 22 21 20 20 19 18 18 19 19 20 21 22 22 22 23 23 24 25 26 26 26 26 26 26 26 26 26 26 25 26 26 27 28 29 30 31 32 33 34 34 34 33 32 31 30 30 30 30 30 31 31 31 30 29 28 27 27 26 26 25 25 24 24 23 23 22 21 21 21 20 21 22 22 23 23 23 22 22 22 22 21 23 26 26 25 23 22 22 23 23 24 24 24 22 21 20 20 20 19 19 19
22 21 21 20 19 18 18 18 19 20 20 21 22 22 21 22 23 24 25 26 26 26 26 26 26 26 25 25 24 24 24 24 25 26 27 27 29 31 33 35 36 37 36 34 32 31 30 30 30 30 30 31 31 31 30 29 29 28 27 27 26 25 24 24 23 22 22 22 21 21 21 21 22 24 24 24 24 22 22 22 22 22 22 25 27 25 24 23 22 22 23 24 24 24 23 21 19 19 19 19 19 19 19